Location: Red Deer
(52.2681°N, 113.8112°W)
Time: 10:06:17
(UTC-07:00)

N. Korean satellite - Visible Passes

Search period start: 03 December 2021 00:00
Search period end: 13 December 2021 00:00
Orbit: 447 x 495 km, 97.3° (Epoch: 02 December)

Date Brightness Start Highest point End Pass type
(mag) Time Alt. Az. Time Alt. Az. Time Alt. Az.
03 Dec 6.2 06:08:35 10° NNE 06:12:00 83° WNW 06:15:22 10° SSW visible
04 Dec 7.5 05:40:10 10° NNE 05:43:27 44° E 05:46:41 10° S visible
04 Dec 7.9 07:14:05 10° NNW 07:16:21 17° WNW 07:18:37 10° WSW visible
04 Dec 9.6 17:53:38 10° SW 17:56:09 18° W 17:58:41 10° NW visible
05 Dec 8.9 05:12:04 10° NE 05:14:46 21° E 05:17:26 10° SE visible
05 Dec 7.1 06:44:58 10° N 06:48:02 31° WNW 06:51:04 10° SW visible
05 Dec 8.3 17:24:11 10° SSW 17:27:27 36° W 17:30:42 10° NNW visible
06 Dec 9.9 04:44:57 10° ENE 04:45:58 11° E 04:46:57 10° ESE visible
06 Dec 6.2 06:16:13 10° N 06:19:36 67° WNW 06:22:56 10° SSW visible
07 Dec 7.1 05:47:42 10° NNE 05:51:02 55° E 05:54:21 10° S visible
07 Dec 8.1 07:21:55 10° NNW 07:23:51 15° WNW 07:25:47 10° W visible
07 Dec 9.7 18:01:39 10° SW 18:03:47 15° W 18:05:56 10° NW visible
08 Dec 8.6 05:19:27 10° NE 05:22:21 26° E 05:25:14 10° SSE visible
08 Dec 7.3 06:52:38 10° N 06:55:31 26° WNW 06:58:24 10° SW visible
08 Dec 8.7 17:31:56 10° SSW 17:35:02 29° W 17:38:07 10° NNW visible
09 Dec 9.7 04:51:51 10° ENE 04:53:34 13° E 04:55:16 10° ESE visible
09 Dec 6.4 06:23:46 10° N 06:27:05 54° WNW 06:30:23 10° SSW visible
09 Dec 7.0 17:02:54 10° S 17:06:21 63° WSW 17:09:48 10° NNW visible
10 Dec 7.5 05:55:08 10° NNE 06:00:16 26° S 06:01:54 10° S visible
10 Dec 8.3 07:29:46 10° NNW 07:31:15 12° WNW 07:31:25 12° WNW visible
10 Dec 9.8 18:09:43 10° WSW 18:11:21 13° W 18:12:57 10° WNW visible
11 Dec 8.9 05:26:46 10° NNE 05:32:05 15° SSE 05:32:54 10° SSE visible
11 Dec 7.9 07:00:13 10° NNW 07:06:12 - WSW 07:01:54 19° NW visible
11 Dec 9.0 17:39:37 10° SSW 17:42:31 24° W 17:45:24 10° NW visible
12 Dec9.805:03:43SE05:03:43SE04:58:30NEvisible
12 Dec 8.1 06:31:14 10° N 06:37:48 10° SW 06:32:34 21° N visible
12 Dec 7.5 17:10:26 10° S 17:13:47 51° W 17:17:09 10° NNW visible
